Date,TemperatureHighF,TemperatureAvgF,TemperatureLowF,DewpointHighF,DewpointAvgF,DewpointLowF,HumidityHigh,HumidityAvg,HumidityLow,PressureMaxIn,PressureMinIn,WindSpeedMaxMPH,WindSpeedAvgMPH,GustSpeedMaxMPH,PrecipitationSumIn
2014-1-1,6,-2,-14,1,-7,-19,80,76,70,30.23,29.89,3,1,0,0.00
2014-1-2,7,-6,-18,-3,-13,-24,76,72,57,30.24,29.82,2,0,0,0.00
2014-1-3,-4,-12,-26,-11,-18,-32,76,72,60,30.19,29.72,0,0,0,0.00
2014-1-4,22,-1,-27,9,-9,-32,79,70,46,30.22,29.94,0,0,0,0.00
2014-1-5,31,20,10,21,14,5,83,74,61,30.13,29.82,0,0,0,0.00
2014-1-6,43,30,14,43,28,11,99,91,81,29.80,29.11,18,5,0,0.73
2014-1-7,13,4,0,10,-3,-9,89,74,60,29.77,29.26,31,12,0,0.00
2014-1-8,12,6,1,2,-1,-6,78,71,63,30.18,29.77,20,9,0,0.00
2014-1-9,14,5,-8,4,-1,-14,80,74,54,30.45,30.15,17,5,0,0.00
2014-1-10,27,11,-10,18,4,-16,82,75,57,30.39,30.09,5,0,0,0.00
2014-1-11,47,36,20,47,35,16,99,96,82,30.09,29.02,8,2,0,0.95
2014-1-12,41,32,29,40,29,22,99,88,76,29.76,29.07,18,9,0,0.02
2014-1-13,45,35,21,25,21,16,89,59,32,29.88,29.66,17,4,0,0.00
2014-1-14,42,37,32,38,32,24,99,85,50,29.68,29.56,6,2,0,0.47
2014-1-15,40,33,22,32,28,21,99,82,64,29.84,29.62,12,3,0,0.04
2014-1-16,29,26,25,26,23,21,92,88,82,29.84,29.76,5,1,0,0.00
2014-1-17,37,29,18,30,24,15,96,83,71,29.79,29.70,6,1,0,0.00
2014-1-18,40,20,7,26,14,4,88,77,47,29.78,29.54,4,1,0,0.03
2014-1-19,34,22,15,23,16,12,87,80,61,29.55,29.20,10,2,0,0.00
2014-1-20,22,9,-6,18,3,-12,86,76,67,29.71,29.22,7,2,0,0.00
2014-1-21,-1,-10,-19,-11,-17,-25,74,70,60,29.91,29.71,5,1,0,0.00
2014-1-22,3,-15,-26,-10,-23,-32,73,68,48,29.84,29.58,6,1,0,0.00
2014-1-23,5,-11,-27,-6,-18,-33,72,68,58,29.94,29.73,7,2,0,0.00
2014-1-24,6,-7,-13,-8,-15,-19,74,68,49,30.02,29.68,10,3,0,0.00
2014-1-25,18,12,1,13,4,-8,82,69,57,29.67,29.08,9,2,0,0.00
2014-1-26,15,-1,-10,10,-10,-18,82,65,47,29.61,29.05,19,6,0,0.01
2014-1-27,32,11,-4,25,2,-13,84,66,43,29.75,29.22,32,8,0,0.01
2014-1-28,10,-1,-12,-9,-13,-18,71,58,39,30.00,29.74,17,5,0,0.00
2014-1-29,16,0,-20,-4,-13,-26,73,56,28,29.98,29.67,13,4,0,0.00
2014-1-30,26,13,6,5,1,-3,74,60,36,30.18,29.86,10,4,0,0.00
2014-1-31,30,24,14,15,8,-2,67,51,33,30.00,29.74,20,7,0,0.00